Regional Weather Roundup
Issued by NWS Cleveland, OH

Home | Current Version | Previous Version | Text Only | Print | Product List | Glossary On
Versions: 1 2 3 4 5 6 7 8 9 10 11 12 13 14 15 16 17 18 19 20 21 22 23 24 25 26 27 28 29 30 31 32 33 34 35 36 37 38 39 40 41 42 43 44 45 46 47 48 49 50
000
ASUS41 KCLE 230210
RWRCLE
OHIO REGIONAL WEATHER ROUNDUP
NATIONAL WEATHER SERVICE WILMINGTON, OH
900 PM EST SAT NOV 22 2014

NOTE: "FAIR" INDICATES FEW OR NO CLOUDS BELOW 12,000 FEET WITH NO
SIGNIFICANT WEATHER AND/OR OBSTRUCTIONS TO VISIBILITY.

OHZ001>008-015>018-024>027-034-035-043-044-230300-
   NORTHWEST OHIO

CITY           SKY/WX    TMP DP  RH WIND       PRES   REMARKS
DEFIANCE       CLOUDY    50  42  74 SW10      29.98S
FINDLAY        CLOUDY    50  40  68 S15       29.99S
TOLEDO EXPRESS LGT RAIN  49  41  74 SW7       29.97S
TOLEDO METCALF CLOUDY    49  40  71 SW9       29.99S
LIMA           MOCLDY    52  39  61 S15       30.00S
$$

OHZ009>014-019>023-028>033-038-089-230300-
   NORTHEAST OHIO

CITY           SKY/WX    TMP DP  RH WIND       PRES   REMARKS
CLE-HOPKINS    CLOUDY    47  35  63 S17G24    30.04F
CLE-LAKEFRONT  CLOUDY    50  35  56 S18G25    30.00F
CUY CO. ARPT   LGT RAIN  48  27  43 S17G25    30.02F
LORAIN-ELYRIA  CLOUDY    48  37  65 SW18G25   30.02S
ASHTABULA      CLOUDY    42  33  70 S14       30.04F
AKRON-CANTON   CLOUDY    45  33  63 S9        30.06F
WOOSTER        CLOUDY   N/A N/A N/A SW10      30.07S
MANSFIELD      CLOUDY    48  37  65 S15       30.04S
YOUNGSTOWN     CLOUDY    45  32  60 S9        30.06S
$$

OHZ042-051>053-060>062-070>072-077>081-230300-
  SOUTHWEST OHIO

CITY           SKY/WX    TMP DP  RH WIND       PRES   REMARKS
CINC-COVINGTON MOCLDY    49  32  52 S7        30.07F
CINC-LUNKEN    MOCLDY    47  36  65 SW3       30.10S
HAMILTON       CLOUDY    57  34  41 S7        30.08S
DAYTON         CLOUDY    55  36  48 S15G23    30.05F
WRIGHT-PAT AFB MOCLDY    52  36  54 S13       30.06S
DAYTON GENERAL CLOUDY    52  37  56 S8        30.07S
WILMINGTON     CLOUDY    49  34  56 S12       30.08F
$$

OHZ036-037-039>041-045>050-054>059-063>069-073>076-082>088-230300-
  CENTRAL AND SOUTHEAST OHIO

CITY           SKY/WX    TMP DP  RH WIND       PRES   REMARKS
COLUMBUS       CLOUDY    48  33  56 S3        30.08S
OSU AIRPORT    CLOUDY    49  35  58 S9        30.07F
BOLTON FIELD   CLOUDY    47  36  63 S9        30.08S
RICKENBACK AFB CLOUDY    46  34  63 S9        30.08S
NEWARK         CLOUDY    46  31  55 SW6       30.08F
MARION         CLOUDY    48  38  68 S12       30.05R
LANCASTER      CLOUDY    51  32  48 S7        30.10S
ZANESVILLE     MOCLDY    46  31  55 S5        30.10S
NEW PHILLY     CLOUDY    49  31  49 S6        30.10F
$$


USA.gov is the U.S. government's official web portal to all federal, state and local government web resources and services.